Kosmos-2411

operational
NORAD ID: 28508 Int'l Des: 2004-053 Owner: KVR/IACG Country: RU Constellation: GLONASS
MEOCIRCULAR

Kosmos-2411について

説明を読み込み中...

リアルタイム位置

3D地球を読み込み中...

次回通過

高度履歴

Altitude vs Time

uPlot chart will show altitude changes over time

軌道要素

1 28508U 04053A 25255.43019817 .00000014 00000-0 00000-0 0 9992
2 28508 64.0302 70.0468 0006493 204.5333 153.6337 2.13103355161208
Epoch: Sep 12, 2025 • Age: 161 hours

現在のステータス

高度 19135.6 km
速度 3.95 km/s
衛星直下点 51.47°N, 156.89°E
打ち上げ日 Dec 26, 2004
運用期間 20.7 years
タイプ other

技術仕様

分類 Payload
質量 1450.00 kg
乾燥質量 1200.00 kg
総質量 1450.00 kg
長さ 4.00 m
直径 1.50 m
スパン 7.80 m
形状 Cyl + Ant + 2 Pan
製造者 POL
バスタイプ Uragan
フェーズステータス In Orbit
所有者/国 KVR/IACG/RU

大規模コンステレーション

Loading constellations...